EW5401 Weather Reports


Display with metric or nautical units.
time (UTC)temp
F
wind
direction
speed
MPH
gust
MPH
rain 1hr
in
rain 24hr
in
rain mn
in
humidity
%
barometer
mb
20260503071537 38 73 0.0 2.0 0.00 0.17 0.00 72 1010.0
20260503060122 40 257 0.0 5.0 0.00 0.21 0.00 67 1010.5
20260503054521 41 306 3.0 9.0 0.00 0.24 0.00 67 1010.6
20260503053020 41 288 2.0 10.0 0.00 0.24 0.00 65 1010.7
20260503051517 41 310 2.0 6.0 0.00 0.24 0.00 66 1010.9
20260503050027 41 317 1.0 5.0 0.00 0.24 0.00 64 1011.1
20260503044512 42 302 2.0 8.0 0.00 0.28 0.00 64 1011.1
20260503043009 41 306 0.0 5.0 0.00 0.28 0.00 64 1011.1
20260503041508 41 287 0.0 2.0 0.00 0.28 0.00 63 1011.3
20260503040005 41 221 0.0 1.0 0.00 0.28 0.00 63 1011.5
20260503034503 42 69 0.0 2.0 0.00 0.28 0.28 62 1011.4
20260503033138 42 63 0.0 3.0 0.00 0.28 0.28 61 1011.3
20260503033002 42 63 0.0 3.0 0.00 0.28 0.28 62 1011.3
20260503031601 43 49 0.0 4.0 0.00 0.28 0.28 61 1011.5
20260503030109 43 70 0.0 4.0 0.00 0.28 0.28 62 1011.6
20260503024621 43 15 0.0 5.0 0.00 0.28 0.28 63 1011.7
20260503023051 44 299 0.0 0.0 0.00 0.28 0.28 62 1011.7
20260503021559 45 299 0.0 2.0 0.00 0.28 0.28 58 1011.8
20260503020051 45 5 0.0 4.0 0.00 0.28 0.28 58 1011.7
20260503014550 46 167 0.0 3.0 0.00 0.28 0.28 57 1011.8
20260503013049 46 12 1.0 6.0 0.00 0.28 0.28 55 1011.7
20260503011551 46 106 0.0 4.0 0.00 0.28 0.28 58 1011.7
20260503010047 46 134 0.0 3.0 0.00 0.28 0.28 57 1011.1
20260503004547 47 15 0.0 4.0 0.00 0.28 0.28 55 1011.0
20260503003048 47 325 1.0 6.0 0.00 0.28 0.28 53 1010.9
20260503001558 48 341 0.0 4.0 0.00 0.28 0.28 52 1010.7
20260503000058 48 333 1.0 5.0 0.00 0.28 0.28 51 1010.7
20260502234550 49 336 1.0 4.0 0.00 0.28 0.28 51 1010.8
20260502233059 49 38 0.0 2.0 0.00 0.28 0.28 53 1010.5
20260502231559 50 158 0.0 4.0 0.00 0.28 0.28 51 1010.5
20260502230044 50 38 0.0 2.0 0.00 0.28 0.28 51 1010.4
20260502224544 51 55 0.0 9.0 0.00 0.28 0.28 50 1010.3
20260502223048 52 302 0.0 5.0 0.00 0.28 0.28 48 1010.1
20260502221557 53 309 2.0 13.0 0.00 0.28 0.28 46 1010.0
20260502220044 52 360 3.0 11.0 0.00 0.28 0.28 48 1009.9
20260502214541 52 306 2.0 7.0 0.00 0.28 0.28 49 1009.8
20260502213049 52 181 0.0 5.0 0.00 0.28 0.28 49 1009.6
20260502211545 53 313 1.0 6.0 0.00 0.28 0.28 47 1009.4
20260502210043 55 283 2.0 11.0 0.00 0.28 0.28 44 1009.3
20260502204547 57 314 3.0 16.0 0.00 0.28 0.28 42 1009.2
20260502203037 57 287 4.0 12.0 0.00 0.28 0.28 42 1009.2
20260502201535 56 276 2.0 9.0 0.00 0.28 0.28 49 1009.4
20260502200033 54 311 5.0 13.0 0.00 0.28 0.28 48 1009.7
20260502194537 54 296 2.0 11.0 0.00 0.28 0.28 53 1009.8
20260502193030 55 318 4.0 9.0 0.00 0.28 0.28 49 1009.8
20260502191533 54 317 1.0 3.0 0.00 0.28 0.28 56 1010.0
20260502190028 55 64 2.0 14.0 0.00 0.28 0.28 56 1010.0
20260502184528 56 240 2.0 8.0 0.00 0.28 0.28 56 1010.0
20260502183025 55 76 3.0 6.0 0.00 0.28 0.28 53 1010.0
20260502181529 55 301 3.0 9.0 0.00 0.28 0.28 59 1010.1
20260502163006 49 42 1.0 6.0 0.00 0.28 0.28 76 1011.0
20260502161504 49 91 2.0 6.0 0.00 0.28 0.28 79 1011.2
20260502151501 46 53 0.0 3.0 0.01 0.28 0.28 88 1011.5
20260502150114 45 55 1.0 3.0 0.00 0.27 0.27 87 1011.5
20260502123042 47 184 0.0 1.0 0.00 0.25 0.25 94 1011.1
20260502121546 46 184 0.0 3.0 0.00 0.25 0.25 94 1011.0
20260502114542 46 181 0.0 2.0 0.00 0.25 0.25 94 1011.0
20260502113040 46 181 0.0 1.0 0.00 0.25 0.25 94 1010.9
20260502111540 46 181 0.0 2.0 0.01 0.25 0.25 94 1010.8
20260502110038 46 140 0.0 3.0 0.01 0.25 0.25 94 1010.8
20260502104547 45 115 0.0 0.0 0.03 0.25 0.25 94 1010.7
20260502103037 45 115 0.0 0.0 0.05 0.25 0.25 94 1010.5
20260502101537 45 115 0.0 0.0 0.05 0.24 0.24 94 1010.4
20260502091534 45 115 0.0 3.0 0.02 0.19 0.19 94 1010.0